Retour au catalogue

SPACEMOBILE-003

ActifCommunicationsVLEO
NORAD 61045·PAYLOAD·🇺🇸 United States

Lancé Sep 12, 2024 depuis Cape Canaveral Space Force Station

Loading…

Prochains Passages (prochaines 24 heures)

TLE

FraisSource: CelesTrak SupGP

Époque: Sep 15, 2026, 05:08 UTC

1 61045C 24163A   26258.21457140 -.00200940  00000+0 -90748-2 0  2583
2 61045  52.9663 255.5005 0005832  34.7712  89.0153 15.20453653    14

Suivez SPACEMOBILE-003 en temps réel avec AllMySat

Download on the App Store